Location: Gerlach
(40.6516°N, 119.3568°W)
Time: 10:56:03
(UTC-07:00)

ISS - Pass Details

Date: 24 August 2022
Orbit: 414 x 417 km, 51.6° (Epoch: 27 September)

Event Time Altitude Azimuth Distance (km) Brightness Sun altitude
Exits shadow 05:41:25 - 243° (WSW) 1,542 -1.6 -7.2°
Reaches altitude 10° 05:41:33 10° 243° (WSW) 1,493 -1.6 -7.2°
Maximum altitude 05:44:52 64° 326° (NW) 468 -3.6 -6.6°
Drops below altitude 10° 05:48:13 10° 48° (NE) 1,497 0.4 -6.0°
Sets 05:50:20 0° 52° (NE) 2,362 1.8 -5.6°
